Regional Weather Roundup
Issued by NWS

Home | Current Version | Previous Version | Graphics & Text | Print | Product List | Glossary On
Versions: 1 2 3 4 5 6 7 8 9 10 11 12 13 14 15 16 17 18 19 20 21 22 23 24 25 26 27 28 29 30 31 32 33 34 35 36 37 38 39 40 41 42 43 44 45 46 47 48 49 50
000
ASUS43 KTOP 260808
RWRKS

WEATHER ROUNDUP FOR KANSAS
NATIONAL WEATHER SERVICE GOODLAND KS
300 AM CDT MON SEP 26 2016

NOTE:  "FAIR" INDICATES FEW OR NO CLOUDS BELOW 12,000 FEET WITH NO
SIGNIFICANT WEATHER AND/OR OBSTRUCTIONS TO VISIBILITY.

KSZ001>006-013>018-027>032-041>047-260900-
NORTHWEST KANSAS

CITY           SKY/WX    TMP DP  RH WIND       PRES   REMARKS
GOODLAND       CLEAR     43  35  73 W6        30.40S
HAYS           CLEAR     45  28  53 NW7       30.34S
HILL CITY      CLEAR     42  34  73 W7        30.37R
RUSSELL        CLEAR     49  37  63 NW5       30.32S
$$

KSZ061>065-074>080-084>089-260900-
SOUTHWEST KANSAS

CITY           SKY/WX    TMP DP  RH WIND       PRES   REMARKS
DODGE CITY     CLEAR     43  34  70 NW7       30.36R
ELKHART          N/A     48  30  49 W3          N/A
GARDEN CITY    CLEAR     42  32  67 N9        30.37S
GREAT BEND     CLEAR     46  36  66 CALM      30.33S
LIBERAL        CLEAR     45  30  57 N6        30.38R
PRATT          CLEAR     44  39  80 N5        30.32S
$$

KSZ066>073-081>083-090>101-260900-
SOUTHEAST KANSAS

CITY           SKY/WX    TMP DP  RH WIND       PRES   REMARKS
CHANUTE        CLOUDY    58  55  90 N6        30.23R
COFFEYVILLE    MOCLDY    60  59  96 NW3       30.22R
HUTCHINSON     CLEAR     54  40  59 N8        30.30R
MEDICINE LODGE   N/A     48  44  86 N3          N/A
NEWTON         CLEAR    N/A N/A N/A N8        30.29R
PARSONS        PTCLDY    57  56  96 N3        30.23R
WICHITA INTL   PTCLDY    53  47  79 NW8       30.28R
WICHITA JABRA  CLEAR     51  45  79 N7        30.27R
WICHITA MCCONL CLEAR     54  45  70 N7        30.28R HAZE
WINFIELD       CLEAR     54  50  86 N6        30.28R
$$

KSZ007>012-019>026-033>040-048>060-102>105-260900-
NORTHEAST KANSAS

CITY           SKY/WX    TMP DP  RH WIND       PRES   REMARKS
CONCORDIA      CLEAR     48  41  76 NW7       30.30S
EMPORIA        CLEAR     52  47  83 NW3       30.26R
LAWRENCE       CLEAR     53  50  89 NW8       30.24R
MANHATTAN      CLEAR     48  44  86 CALM      30.28R
MARYSVILLE     PTCLDY    50  41  71 CALM      30.27S
OLATHE IND     CLEAR     55  52  89 NW8       30.24R
OLATHE EXE     CLEAR     56  53  90 NW5       30.23R
SALINA         CLEAR     50  43  77 NW6       30.30S
TOPEKA BILLARD CLEAR     53  44  71 NW6       30.25S HAZE
TOPEKA FORBES  CLEAR     52  46  80 NW6       30.25R HAZE
$$



USA.gov is the U.S. government's official web portal to all federal, state and local government web resources and services.